TimeEDT,TemperatureF,Dew PointF,Humidity,Sea Level PressureIn,VisibilityMPH,Wind Direction,Wind SpeedMPH,Gust SpeedMPH,PrecipitationIn,Events,Conditions,WindDirDegrees,DateUTC
12:38 AM,63.0,59.0,87,29.72,10.0,SSW,15.0,29.9,0.01,,Overcast,210,2013-04-20 04:38:00
12:52 AM,64.0,60.1,87,29.71,8.0,SSW,23.0,33.4,0.01,Rain,Light Rain,210,2013-04-20 04:52:00
1:52 AM,63.0,57.9,84,29.70,8.0,SW,18.4,34.5,0.05,Rain,Light Rain,220,2013-04-20 05:52:00
2:35 AM,62.1,57.9,86,29.67,5.0,SW,16.1,21.9,0.10,Rain,Light Rain,220,2013-04-20 06:35:00
2:52 AM,62.1,57.9,86,29.66,10.0,South,13.8,25.3,0.11,Rain,Light Rain,190,2013-04-20 06:52:00
3:52 AM,61.0,57.0,87,29.66,9.0,SSW,11.5,23.0,0.01,Rain,Light Rain,210,2013-04-20 07:52:00
4:52 AM,57.9,55.0,90,29.68,10.0,SSW,12.7,32.2,0.02,Rain,Light Rain,210,2013-04-20 08:52:00
5:05 AM,57.9,54.0,87,29.67,10.0,SW,15.0,27.6,0.00,Rain,Light Rain,220,2013-04-20 09:05:00
5:52 AM,57.0,54.0,89,29.68,7.0,SSW,8.1,19.6,0.03,Rain,Light Rain,210,2013-04-20 09:52:00
6:37 AM,55.9,52.0,87,29.71,2.5,WSW,6.9,-,0.08,Rain,Rain,250,2013-04-20 10:37:00
6:44 AM,55.9,53.1,90,29.71,3.0,WNW,5.8,-,0.09,Rain,Rain,290,2013-04-20 10:44:00
6:52 AM,55.9,52.0,87,29.72,3.0,West,5.8,-,0.10,Rain,Rain,280,2013-04-20 10:52:00
7:03 AM,55.0,51.1,86,29.73,4.0,WNW,8.1,-,0.02,Rain,Rain,290,2013-04-20 11:03:00
7:20 AM,54.0,50.0,86,29.75,2.0,WNW,9.2,-,0.07,Rain,Rain,290,2013-04-20 11:20:00
7:43 AM,52.0,48.0,86,29.77,2.0,WNW,10.4,17.3,0.16,Rain,Heavy Rain,290,2013-04-20 11:43:00
7:52 AM,51.1,46.0,83,29.77,2.5,WNW,10.4,17.3,0.19,Rain,Heavy Rain,290,2013-04-20 11:52:00
8:12 AM,50.0,46.0,86,29.79,5.0,WNW,10.4,-,0.04,Rain,Light Rain,290,2013-04-20 12:12:00
8:52 AM,48.9,43.0,80,29.80,10.0,WNW,10.4,19.6,0.06,Rain,Light Rain,290,2013-04-20 12:52:00
9:52 AM,48.9,43.0,80,29.84,10.0,West,10.4,-,0.01,,Mostly Cloudy,280,2013-04-20 13:52:00
10:52 AM,51.1,39.0,63,29.88,10.0,West,6.9,-,N/A,,Overcast,280,2013-04-20 14:52:00
11:52 AM,54.0,37.9,55,29.88,10.0,WNW,9.2,-,N/A,,Mostly Cloudy,290,2013-04-20 15:52:00
12:52 PM,55.0,37.0,51,29.88,10.0,West,10.4,-,N/A,,Scattered Clouds,280,2013-04-20 16:52:00
1:52 PM,57.9,33.1,39,29.88,10.0,West,13.8,21.9,N/A,,Clear,260,2013-04-20 17:52:00
2:52 PM,57.9,33.1,39,29.90,10.0,West,10.4,19.6,N/A,,Scattered Clouds,260,2013-04-20 18:52:00
3:52 PM,61.0,33.1,35,29.91,10.0,Variable,5.8,-,N/A,,Scattered Clouds,0,2013-04-20 19:52:00
4:52 PM,59.0,30.9,35,29.93,10.0,West,10.4,17.3,N/A,,Clear,280,2013-04-20 20:52:00
5:52 PM,57.9,30.9,36,29.97,10.0,NW,8.1,-,N/A,,Partly Cloudy,320,2013-04-20 21:52:00
6:52 PM,55.9,30.9,39,30.00,10.0,West,6.9,-,N/A,,Clear,280,2013-04-20 22:52:00
7:52 PM,50.0,36.0,59,30.03,10.0,Calm,Calm,-,N/A,,Scattered Clouds,0,2013-04-20 23:52:00
8:52 PM,46.9,36.0,66,30.09,10.0,Calm,Calm,-,N/A,,Clear,0,2013-04-21 00:52:00
9:52 PM,51.1,30.0,44,30.13,10.0,NW,5.8,-,N/A,,Partly Cloudy,320,2013-04-21 01:52:00
10:52 PM,50.0,27.0,41,30.17,10.0,NW,10.4,-,N/A,,Clear,320,2013-04-21 02:52:00
11:52 PM,48.0,25.0,41,30.21,10.0,NW,6.9,-,N/A,,Clear,310,2013-04-21 03:52:00